Showing default

SKYSAT C3, 41774

Orbit data source: Space-Track

SKYSAT C3, 41774 is a payload satellite owned by Terra Bella (US) in SSO that was launched on Fri, 16 Sep 2016 UTC via a VEGA launch vehicle from the French Guiana (FRGUI). Payload-class satellites include a variety of spacecraft equipped with specific instruments for various scientific and technological missions. These include communications satellites like Starlink; space stations such as the ISS; scientific satellites like the Hubble; Earth observation satellites from companies like Planet Labs, Umbra, and HawkEye 360; GPS; miniature CubeSats for education and research; and military/defense satellites.

Loading next visibility...
Identifier
41774, 2016-058E
Orbit
SSO
Country
Flag of USUS
Related business
Manufacturer
SS/Loral (MDA)
Mission
Partially operational Commercial Imaging
Bus & Motor
SKYSAT-GEN2, Unknown motor
Mass
110 kg wet, 110 kg dry
Launch date (UTC)
2016-09-16 (10 years ago)
Launch vehicle
VEGA
Launch site
French Guiana (FRGUI)
Object type
Payload
Rocket body
Debris
Shape & HBR
Box, 1.0 m
Radar Cross Section
0.888 m², Medium (>0.1 m² and < 1m²)

Expand to show TLE details & history
Last TLE update: 2 days ago

TLE from 2 days ago
0 SKYSAT C3
1 41774U 16058E   26171.36592513  .00020111  00000-0  32765-3 0  9995
2 41774  96.9003 202.0899 0001389 101.4792 258.6618 15.52656860546608
Epoch: 2026-06-20T08:46Z
TLE epoch observation values (Epoch: 2026-06-20T08:46:55.931Z)
Latitude
-0.00003°
Longitude
161.77527°
Altitude
412.307 km
Speed
7.663 km/s
True Right ascension
13h 28m 21s
True Declination
0° 00' 00"
Sunlit
Object was in full shadow at epoch
Visualization orbit readout
Latitude
Unknown
Longitude
Unknown
Altitude
Unknown
Speed
Unknown
Apparent Right ascension
Unknown
Apparent Declination
Unknown
Sunlit
N/A
Visualization observer readout
Local Sidereal Time
21:36:54
Azimuth
Unknown
Elevation
Unknown
Doppler factor
Unknown
Orbital elements
Apogee altitude
406.816 km
Perigee altitude
404.931 km
Semi-major axis
6,784.011 km
Eccentricity
0.00014
Inclination
96.9003°
RAAN
202.0899°
Arg. of periapsis
101.4792°
True anomaly
258.64619°
Mean anomaly
258.6618°
Eccentric anomaly
258.654°
Mean motion
3.88431 °/min
Orbital period
92.68 mins
BSTAR
0.00032765
Loading maneuver chart data...
Computing Atmospheric mass density...
Loading historical data...
Loading historical data...
Loading historical data...
Loading historical data...
Loading historical data...
Loading historical data...
Loading historical data...

Documentation

Showing up to 5 results
|